STARLINK-36287, 67708

Orbit data source: Space-Track

STARLINK-36287, 67708 is a payload satellite owned by SpaceX/Seattle (US) in SSO that was launched on Sat, 07 Feb 2026 UTC via an FALCON 9 launch vehicle from the Air Force Western Test Range (AFWTR). Payload-class satellites include a variety of spacecraft equipped with specific instruments for various scientific and technological missions. These include communications satellites like Starlink; space stations such as the ISS; scientific satellites like the Hubble; Earth observation satellites from companies like Planet Labs, Umbra, and HawkEye 360; GPS; miniature CubeSats for education and research; and military/defense satellites.

Loading next visibility...
Identifier
67708, 2026-025R
Orbit
SSO
Country
Flag of USUS
Related business
Manufacturer
SpaceX/Seattle
Mission
Operational spacecraft
Bus & Motor
STARLINK V2MO, Unknown motor
Mass
575 kg wet, ~530 kg dry
Launch date (UTC)
2026-02-07 (1 month ago)
Launch vehicle
FALCON 9
Launch site
Air Force Western Test Range (AFWTR)
Object type
Payload
Rocket body
Debris
Shape & HBR
Unknown
Radar Cross Section
RCS unknown

Expand to show TLE details & history
Last TLE update: 12 hours ago

TLE from 12 hours ago
0 STARLINK-36287
1 67708U 26025R   26071.84925497  .00361190  00000-0  23245-2 0  9995
2 67708  97.2849 183.6794 0001274  90.2159 269.9252 15.75159744  6455
Epoch: 2026-03-12T20:22Z
TLE epoch observation values (Epoch: 2026-03-12T20:22:55.629Z)
Latitude
-0.00004°
Longitude
67.45438°
Altitude
347.346 km
Speed
7.7 km/s
True Right ascension
12h 14m 43s
True Declination
0° 00' 00"
Sunlit
Object was in full shadow at epoch
Visualization orbit readout
Latitude
Unknown
Longitude
Unknown
Altitude
Unknown
Speed
Unknown
Apparent Right ascension
Unknown
Apparent Declination
Unknown
Sunlit
N/A
Visualization observer readout
Local Sidereal Time
12:47:15
Azimuth
Unknown
Elevation
Unknown
Doppler factor
Unknown
Orbital elements
Apogee altitude
341.92 km
Perigee altitude
340.208 km
Semi-major axis
6,719.201 km
Eccentricity
0.00013
Inclination
97.2849°
RAAN
183.6794°
Arg. of periapsis
90.2159°
True anomaly
269.9106°
Mean anomaly
269.9252°
Eccentric anomaly
269.9179°
Mean motion
3.94064 °/min
Orbital period
91.36 mins
BSTAR
0.0023245
Loading maneuver chart data...
Computing Atmospheric mass density...
Loading historical data...
Loading historical data...
Loading historical data...
Loading historical data...
Loading historical data...
Loading historical data...
Loading historical data...

Documentation

Showing up to 5 results
|